This demonstration page uses our WeatherBlox Daily Observations layout. Learn more.

Hourly Observations for March 4, 2016

Temp ( °F °C ) Dew Point ( °F °C ) Humidity (%) Winds ( mph kmh ) Pressure ( in mb ) Visibility ( mi km ) Precip ( " mm )
12:15 am 00:15 Clear 32 0 28 -2.2 85 85 SSE 8 13 30.18 1022 10 16.0934 0 0
12:35 am 00:35 Clear 31 -0.3 28 -2.5 85 85 SSE 7 11 30.18 1022 10 16.0934 0 0
12:55 am 00:55 Clear 30 -1.1 27 -3 87 87 SSE 5 7 30.18 1022 10 16.0934 0 0
1:15 am 01:15 Clear 31 -0.6 28 -2.5 87 87 SSE 7 11 30.15 1021 10 16.0934 0 0
1:35 am 01:35 Clear 31 -0.5 28 -2.5 87 87 SSE 8 13 30.12 1020 10 16.0934 0 0
1:55 am 01:55 Clear 31 -0.7 28 -2.4 88 88 SSE 8 13 30.15 1021 10 16.0934 0 0
2:15 am 02:15 Clear 31 -0.8 27 -2.6 88 88 SSE 8 13 30.12 1020 10 16.0934 0 0
2:35 am 02:35 Clear 31 -0.6 28 -2.5 87 87 SSE 9 15 30.12 1020 10 16.0934 0 0
2:55 am 02:55 Clear 31 -0.7 28 -2.5 88 88 SSE 9 15 30.12 1020 10 16.0934 0 0
3:15 am 03:15 Clear 32 -0.1 28 -2.1 87 87 S 9 15 30.09 1019 10 16.0934 0 0
3:35 am 03:35 Clear 32 0.2 29 -1.9 86 86 S 16 26 30.06 1018 10 16.0934 0 0
3:55 am 03:55 Clear 33 0.5 29 -1.8 85 85 S 14 22 30.06 1018 10 16.0934 0 0
4:15 am 04:15 Clear 33 0.7 29 -1.7 84 84 S 13 20 30.06 1018 10 16.0934 0 0
4:35 am 04:35 Clear 33 0.6 29 -1.6 85 85 S 13 20 30.06 1018 10 16.0934 0 0
4:55 am 04:55 Clear 33 0.7 29 -1.5 85 85 S 13 20 30.06 1018 10 16.0934 0 0
5:15 am 05:15 Clear 33 0.7 29 -1.6 85 85 S 10 17 30.06 1018 10 16.0934 0 0
5:35 am 05:35 Clear 33 0.7 29 -1.5 85 85 S 10 17 30.06 1018 10 16.0934 0 0
5:55 am 05:55 Clear 33 0.7 29 -1.5 85 85 S 12 19 30.03 1017 10 16.0934 0 0
6:15 am 06:15 Clear 34 1 30 -1.3 85 85 S 10 17 30.03 1017 10 16.0934 0 0
6:35 am 06:35 Clear 34 1 30 -1.3 85 85 S 13 20 30.03 1017 10 16.0934 0 0
6:55 am 06:55 Clear 33 0.5 29 -1.5 87 87 S 9 15 30.06 1018 10 16.0934 0 0
7:15 am 07:15 Sunny 33 0.5 29 -1.5 87 87 S 13 20 30.03 1017 10 16.0934 0 0
7:35 am 07:35 Sunny 33 0.8 30 -1.2 87 87 SSW 12 19 30.03 1017 10 16.0934 0 0
7:55 am 07:55 Sunny 34 1 30 -1.1 86 86 S 14 22 30.03 1017 10 16.0934 0 0
8:15 am 08:15 Sunny 35 1.5 31 -0.8 85 85 SSW 10 17 30.03 1017 10 16.0934 0 0
8:35 am 08:35 Sunny 36 2.2 31 -0.7 81 81 S 10 17 30.03 1017 10 16.0934 0 0
8:55 am 08:55 Sunny 38 3.1 31 -0.6 77 77 SSW 10 17 30 1016 10 16.0934 0 0
9:15 am 09:15 Sunny 39 3.8 31 -0.8 72 72 S 12 19 30 1016 10 16.0934 0 0
9:35 am 09:35 Sunny 41 4.9 31 -0.7 67 67 SW 9 15 30 1016 10 16.0934 0 0
9:55 am 09:55 Sunny 44 6.5 30 -0.9 60 60 SW 12 19 29.97 1015 10 16.0934 0 0
10:15 am 10:15 Sunny 46 7.8 30 -1.3 53 53 SW 9 15 29.97 1015 10 16.0934 0 0
10:35 am 10:35 Sunny 47 8.4 29 -1.6 50 50 WSW 9 15 29.97 1015 10 16.0934 0 0
10:55 am 10:55 Sunny 49 9.6 29 -1.5 46 46 W 13 20 29.94 1014 10 16.0934 0 0
11:15 am 11:15 Sunny 52 11.2 29 -1.9 40 40 NW 15 24 29.94 1014 10 16.0934 0 0
11:35 am 11:35 Sunny 53 11.9 27 -2.7 36 36 NNW 16 26 29.97 1015 10 16.0934 0 0
11:55 am 11:55 Sunny 54 12.1 28 -2.1 37 37 N 16 26 29.97 1015 10 16.0934 0 0
12:15 pm 12:15 Sunny 56 13.6 29 -1.8 35 35 N 20 31 29.94 1014 10 16.0934 0 0
12:35 pm 12:35 Sunny 58 14.4 29 -1.4 34 34 N 16 26 29.94 1014 10 16.0934 0 0
12:55 pm 12:55 Sunny 60 15.4 31 -0.7 33 33 N 17 28 29.97 1015 10 16.0934 0 0
1:15 pm 13:15 Sunny 60 15.6 32 0 35 35 N 18 30 29.94 1014 10 16.0934 0 0
1:35 pm 13:35 Sunny 61 16 32 0 34 34 N 25 41 29.94 1014 10 16.0934 0 0
1:55 pm 13:55 Sunny 62 16.9 32 -0.2 32 32 N 26 43 29.94 1014 10 16.0934 0 0
2:15 pm 14:15 Sunny 61 15.9 31 -0.8 32 32 N 26 43 29.94 1014 10 16.0934 0 0
2:35 pm 14:35 Sunny 60 15.5 31 -0.5 34 34 NNE 22 35 29.94 1014 10 16.0934 0 0
2:55 pm 14:55 Sunny 62 16.6 32 0 33 33 NNE 20 31 29.94 1014 10 16.0934 0 0
3:15 pm 15:15 Sunny 62 16.8 31 -0.7 31 31 N 20 31 29.94 1014 10 16.0934 0 0
3:35 pm 15:35 Sunny 63 17.4 30 -1.1 29 29 NNW 18 30 29.94 1014 10 16.0934 0 0
3:55 pm 15:55 Sunny 62 16.7 30 -1 30 30 N 10 17 29.97 1015 10 16.0934 0 0
4:15 pm 16:15 Sunny 62 16.7 30 -1.1 30 30 N 12 19 29.97 1015 10 16.0934 0 0
4:35 pm 16:35 Sunny 64 17.5 28 -2.3 26 26 N 15 24 29.97 1015 10 16.0934 0 0
4:55 pm 16:55 Sunny 63 17.4 27 -2.9 25 25 N 15 24 29.97 1015 10 16.0934 0 0
5:15 pm 17:15 Sunny 63 17.1 24 -4.3 23 23 N 15 24 29.97 1015 10 16.0934 0 0
5:35 pm 17:35 Sunny 61 16.3 22 -5.5 22 22 N 15 24 30 1016 10 16.0934 0 0
5:55 pm 17:55 Sunny 60 15.6 22 -5.6 23 23 N 7 11 30.03 1017 10 16.0934 0 0
6:15 pm 18:15 Sunny 58 14.3 22 -5.7 25 25 N 8 13 30.03 1017 10 16.0934 0 0
6:35 pm 18:35 Clear 55 12.5 22 -5.7 28 28 N 8 13 30.06 1018 10 16.0934 0 0
6:55 pm 18:55 Clear 51 10.6 21 -6.1 31 31 N 7 11 30.06 1018 7 11.26538 0 0
7:15 pm 19:15 Clear 47 8.4 20 -6.5 34 34 N 5 7 30.12 1020 10 16.0934 0 0
7:35 pm 19:35 Clear 46 7.6 20 -6.5 36 36 Calm 30.12 1020 10 16.0934 0 0
7:55 pm 19:55 Clear 43 5.9 20 -6.4 41 41 Calm 30.15 1021 10 16.0934 0 0
8:15 pm 20:15 Clear 42 5.4 20 -6.5 42 42 Calm 30.15 1021 10 16.0934 0 0
8:35 pm 20:35 Clear 40 4.6 20 -6.4 45 45 Calm 30.15 1021 10 16.0934 0 0
8:55 pm 20:55 Clear 41 5.1 21 -6 45 45 Calm 30.18 1022 10 16.0934 0 0
9:15 pm 21:15 Clear 40 4.3 21 -5.9 48 48 Calm 30.18 1022 10 16.0934 0 0
9:35 pm 21:35 Clear 36 2.3 21 -6.2 54 54 Calm 30.21 1023 10 16.0934 0 0
9:55 pm 21:55 Clear 36 2 20 -6.5 54 54 Calm 30.21 1023 10 16.0934 0 0
10:15 pm 22:15 Clear 34 1.3 21 -6 59 59 Calm 30.21 1023 10 16.0934 0 0
10:35 pm 22:35 Clear 32 0 20 -6.7 61 61 Calm 30.24 1024 10 16.0934 0 0
10:55 pm 22:55 Clear 33 0.5 20 -6.4 60 60 WNW 3 6 30.21 1023 10 16.0934 0 0
11:15 pm 23:15 Clear 32 0.1 21 -6.3 62 62 WNW 3 6 30.24 1024 10 16.0934 0 0
11:35 pm 23:35 Clear 32 0 20 -6.5 62 62 Calm 30.24 1024 10 16.0934 0 0
11:55 pm 23:55 Clear 32 0 20 -6.5 62 62 W 3 6 30.24 1024 10 16.0934 0 0

Powered by AerisWeather